When you browse on this site, cookies collect data to enhance your experience and personalize the content and advertising you see.
Visit our Privacy Policy to learn more. By continuing to use the site, you agree to this use of cookies and data.
  • Em Portugal
  • Lista de países
  • Para 7 dias
  • Temperatura da água
  • Mapas de satélite
  • Mapa do tempo
  • Widgets de tempo
  • user-avatar
    Iniciar Sessão

    Previsão horária em Fier

    Hoje, 17 Janeiro, Quinta-feira

    Tempo Temperatura Precipitação Vento Pressão Humidade
    00:00 +3°C° 0 mm 3 m/s 766 mmHg 64%
    01:00 +4°C° 0 mm 2 m/s 766 mmHg 65%
    02:00 +4°C° 0 mm 2 m/s 766 mmHg 65%
    03:00 +4°C° 0 mm 2 m/s 765 mmHg 65%
    04:00 +4°C° 0 mm 2 m/s 765 mmHg 65%
    05:00 +3°C° 0 mm 3 m/s 765 mmHg 65%
    06:00 +3°C° 0 mm 3 m/s 765 mmHg 65%
    07:00 +3°C° 0 mm 3 m/s 765 mmHg 65%
    08:00 +5°C° 0 mm 3 m/s 765 mmHg 60%
    09:00 +8°C° 0 mm 3 m/s 765 mmHg 56%
    10:00 +10°C° 0 mm 2 m/s 765 mmHg 52%
    11:00 +12°C° 0 mm 2 m/s 764 mmHg 48%
    12:00 +13°C° 0 mm 2 m/s 764 mmHg 45%
    13:00 +14°C° 0 mm 2 m/s 764 mmHg 42%
    14:00 +13°C° 0 mm 2 m/s 763 mmHg 47%
    15:00 +12°C° 0 mm 2 m/s 763 mmHg 52%
    16:00 +12°C° 0 mm 2 m/s 763 mmHg 57%
    17:00 +10°C° 0 mm 3 m/s 763 mmHg 59%
    18:00 +9°C° 0 mm 3 m/s 763 mmHg 62%
    19:00 +7°C° 0 mm 4 m/s 763 mmHg 64%
    20:00 +6°C° 0 mm 4 m/s 763 mmHg 66%
    21:00 +6°C° 0 mm 4 m/s 763 mmHg 67%
    22:00 +6°C° 0 mm 4 m/s 763 mmHg 69%
    23:00 +6°C° 0 mm 4 m/s 763 mmHg 70%

    Amanhã, 18 Janeiro, Sexta-feira

    Tempo Temperatura Precipitação Vento Pressão Humidade
    00:00 +5°C° 0 mm 4 m/s 763 mmHg 72%
    01:00 +5°C° 0 mm 4 m/s 763 mmHg 74%
    02:00 +6°C° 0.1 mm 4 m/s 762 mmHg 75%
    03:00 +6°C° 0.1 mm 4 m/s 762 mmHg 77%
    04:00 +7°C° 0.1 mm 4 m/s 762 mmHg 79%
    05:00 +7°C° 0.6 mm 4 m/s 762 mmHg 81%
    06:00 +7°C° 0.6 mm 4 m/s 762 mmHg 82%
    07:00 +7°C° 0.6 mm 4 m/s 761 mmHg 84%
    08:00 +8°C° 0.1 mm 4 m/s 762 mmHg 81%
    09:00 +10°C° 0.1 mm 4 m/s 762 mmHg 79%
    10:00 +10°C° 0.1 mm 5 m/s 762 mmHg 76%
    11:00 +10°C° 0.2 mm 5 m/s 762 mmHg 75%
    12:00 +12°C° 0.2 mm 5 m/s 761 mmHg 74%
    13:00 +12°C° 0.2 mm 5 m/s 761 mmHg 73%
    14:00 +12°C° 0.3 mm 5 m/s 761 mmHg 75%
    15:00 +10°C° 0.3 mm 5 m/s 761 mmHg 76%
    16:00 +10°C° 0.3 mm 5 m/s 761 mmHg 78%
    17:00 +9°C° 0.1 mm 5 m/s 761 mmHg 79%
    18:00 +8°C° 0.1 mm 5 m/s 761 mmHg 81%
    19:00 +8°C° 0.1 mm 5 m/s 761 mmHg 82%
    20:00 +8°C° 0 mm 5 m/s 762 mmHg 82%
    21:00 +7°C° 0 mm 4 m/s 762 mmHg 82%
    22:00 +7°C° 0 mm 4 m/s 762 mmHg 82%
    23:00 +7°C° 0 mm 4 m/s 762 mmHg 82%

    Depois de amanhã, 19 Janeiro, Sábado

    Tempo Temperatura Precipitação Vento Pressão Humidade
    00:00 +7°C° 0 mm 4 m/s 762 mmHg 82%
    01:00 +7°C° 0 mm 4 m/s 762 mmHg 82%
    02:00 +7°C° 0 mm 4 m/s 762 mmHg 81%
    03:00 +7°C° 0 mm 4 m/s 761 mmHg 80%
    04:00 +7°C° 0 mm 4 m/s 761 mmHg 80%
    05:00 +6°C° 0 mm 4 m/s 761 mmHg 79%
    06:00 +6°C° 0 mm 4 m/s 761 mmHg 78%
    07:00 +6°C° 0 mm 4 m/s 761 mmHg 77%
    08:00 +8°C° 0 mm 4 m/s 761 mmHg 73%
    09:00 +11°C° 0 mm 4 m/s 761 mmHg 68%
    10:00 +12°C° 0 mm 4 m/s 761 mmHg 64%
    11:00 +13°C° 0 mm 4 m/s 761 mmHg 64%
    12:00 +14°C° 0 mm 4 m/s 761 mmHg 63%
    13:00 +14°C° 0 mm 4 m/s 760 mmHg 62%
    14:00 +13°C° 0.6 mm 4 m/s 760 mmHg 68%
    15:00 +12°C° 0.6 mm 4 m/s 760 mmHg 74%
    16:00 +11°C° 0.6 mm 4 m/s 760 mmHg 81%
    17:00 +10°C° 0.3 mm 4 m/s 760 mmHg 81%
    18:00 +10°C° 0.3 mm 4 m/s 760 mmHg 81%
    19:00 +10°C° 0.3 mm 4 m/s 760 mmHg 81%
    20:00 +10°C° 0 mm 4 m/s 760 mmHg 81%
    21:00 +10°C° 0 mm 4 m/s 760 mmHg 80%
    22:00 +8°C° 0 mm 4 m/s 760 mmHg 80%
    23:00 +8°C° 0 mm 4 m/s 760 mmHg 80%

    20 Janeiro, Domingo

    Tempo Temperatura Precipitação Vento Pressão Humidade
    00:00 +8°C° 0 mm 4 m/s 760 mmHg 79%
    01:00 +8°C° 0 mm 4 m/s 759 mmHg 79%
    02:00 +7°C° 0.1 mm 4 m/s 759 mmHg 80%
    03:00 +7°C° 0.1 mm 4 m/s 759 mmHg 80%
    04:00 +7°C° 0.1 mm 4 m/s 759 mmHg 80%
    05:00 +7°C° 0.2 mm 4 m/s 759 mmHg 81%
    06:00 +7°C° 0.2 mm 4 m/s 759 mmHg 82%
    07:00 +7°C° 0.2 mm 4 m/s 759 mmHg 82%
    08:00 +8°C° 0.6 mm 4 m/s 760 mmHg 78%
    09:00 +11°C° 0.6 mm 4 m/s 760 mmHg 74%
    10:00 +12°C° 0.6 mm 3 m/s 760 mmHg 70%
    11:00 +13°C° 0.8 mm 3 m/s 760 mmHg 69%
    12:00 +13°C° 0.8 mm 4 m/s 760 mmHg 68%
    13:00 +14°C° 0.8 mm 4 m/s 759 mmHg 67%
    14:00 +13°C° 0.3 mm 3 m/s 759 mmHg 70%
    15:00 +13°C° 0.3 mm 2 m/s 759 mmHg 72%
    16:00 +13°C° 0.3 mm 1 m/s 759 mmHg 75%
    17:00 +12°C° 0 mm 1 m/s 760 mmHg 78%
    18:00 +11°C° 0 mm 1 m/s 760 mmHg 81%
    19:00 +10°C° 0 mm 1 m/s 761 mmHg 84%
    20:00 +10°C° 0 mm 1 m/s 761 mmHg 84%
    21:00 +9°C° 0 mm 2 m/s 761 mmHg 85%
    22:00 +8°C° 0 mm 2 m/s 761 mmHg 85%
    23:00 +8°C° 0 mm 2 m/s 761 mmHg 84%

    21 Janeiro, Segunda-feira

    Tempo Temperatura Precipitação Vento Pressão Humidade
    00:00 +8°C° 0 mm 2 m/s 761 mmHg 83%
    01:00 +8°C° 0 mm 3 m/s 761 mmHg 82%
    02:00 +7°C° 0 mm 3 m/s 761 mmHg 81%
    03:00 +7°C° 0 mm 3 m/s 761 mmHg 81%
    04:00 +7°C° 0 mm 3 m/s 761 mmHg 80%
    05:00 +7°C° 0 mm 3 m/s 761 mmHg 80%
    06:00 +7°C° 0 mm 3 m/s 761 mmHg 79%
    07:00 +6°C° 0 mm 4 m/s 761 mmHg 79%
    08:00 +7°C° 0 mm 4 m/s 761 mmHg 74%
    09:00 +10°C° 0 mm 4 m/s 761 mmHg 69%
    10:00 +12°C° 0 mm 4 m/s 761 mmHg 64%
    11:00 +13°C° 0.1 mm 4 m/s 761 mmHg 61%
    12:00 +13°C° 0.1 mm 4 m/s 760 mmHg 59%
    13:00 +14°C° 0.1 mm 4 m/s 760 mmHg 57%
    14:00 +13°C° 0.5 mm 4 m/s 759 mmHg 63%
    15:00 +13°C° 0.5 mm 4 m/s 759 mmHg 70%
    16:00 +12°C° 0.5 mm 4 m/s 759 mmHg 76%
    17:00 +11°C° 0.4 mm 4 m/s 759 mmHg 77%
    18:00 +11°C° 0.4 mm 4 m/s 759 mmHg 78%
    19:00 +11°C° 0.4 mm 4 m/s 760 mmHg 78%
    20:00 +10°C° 0.2 mm 4 m/s 759 mmHg 78%
    21:00 +10°C° 0.2 mm 4 m/s 759 mmHg 77%
    22:00 +10°C° 0.2 mm 4 m/s 759 mmHg 76%
    23:00 +9°C° 0.3 mm 5 m/s 759 mmHg 74%

    22 Janeiro, Terça-feira

    Tempo Temperatura Precipitação Vento Pressão Humidade
    00:00 +9°C° 0.3 mm 5 m/s 758 mmHg 73%
    01:00 +8°C° 0.3 mm 5 m/s 758 mmHg 71%
    02:00 +8°C° 0.3 mm 5 m/s 758 mmHg 72%
    03:00 +8°C° 0.3 mm 5 m/s 757 mmHg 72%
    04:00 +8°C° 0.3 mm 5 m/s 756 mmHg 72%
    05:00 +8°C° 0.5 mm 5 m/s 756 mmHg 74%
    06:00 +8°C° 0.5 mm 5 m/s 756 mmHg 76%
    07:00 +8°C° 0.5 mm 5 m/s 756 mmHg 78%
    08:00 +8°C° 1.5 mm 5 m/s 756 mmHg 78%
    09:00 +8°C° 1.5 mm 5 m/s 755 mmHg 78%
    10:00 +8°C° 1.5 mm 5 m/s 755 mmHg 78%
    11:00 +9°C° 1.4 mm 6 m/s 755 mmHg 78%
    12:00 +10°C° 1.4 mm 6 m/s 755 mmHg 78%
    13:00 +11°C° 1.4 mm 6 m/s 754 mmHg 77%
    14:00 +12°C° 1 mm 5 m/s 754 mmHg 77%
    15:00 +12°C° 1 mm 5 m/s 754 mmHg 77%
    16:00 +12°C° 1 mm 4 m/s 754 mmHg 77%
    17:00 +11°C° 1.2 mm 3 m/s 754 mmHg 78%
    18:00 +11°C° 1.2 mm 3 m/s 754 mmHg 80%
    19:00 +10°C° 1.2 mm 3 m/s 754 mmHg 81%
    20:00 +10°C° 1.3 mm 3 m/s 754 mmHg 82%
    21:00 +10°C° 1.3 mm 3 m/s 753 mmHg 83%
    22:00 +9°C° 1.3 mm 3 m/s 753 mmHg 84%
    23:00 +9°C° 1.4 mm 3 m/s 753 mmHg 84%
    Mostrar mais